EWG7GH EDDL-LKPR

Flight info

Callsign EWG7GH
Flight time 0h 57m
Altitude 32000
Route MEVEL1Z MEVEL L179 MISRI Z851 ELTUK Z47 EXOBA DCT NOMKA DCT SUVUT L620 PIKIB T620 LALUK DCT GOLOP
Aircraft A320/M-SDE3FGHIRWY/LB1

Departure

Time 2026-05-06 19:20
Airport Düsseldorf Airport (EDDL)

Arrival

Time 2026-05-06 20:17
Airport Václav Havel Airport Prague (LKPR)
Time Latitude Longitude Altitude Speed Heading
2026-05-06 18:48 51.28444 6.76965 123 ft 0 kts 322°
2026-05-06 19:01 51.28444 6.76966 128 ft 0 kts 322°
2026-05-06 19:09 51.28427 6.76986 126 ft 4 kts 319°
2026-05-06 19:09 51.28408 6.77016 124 ft 4 kts 302°
2026-05-06 19:10 51.28401 6.77049 123 ft 3 kts 241°
2026-05-06 19:10 51.28403 6.77056 123 ft 1 kts 233°
2026-05-06 19:13 51.28388 6.77022 125 ft 11 kts 233°
2026-05-06 19:13 51.28350 6.76932 127 ft 8 kts 248°
2026-05-06 19:13 51.28345 6.76861 127 ft 5 kts 271°
2026-05-06 19:14 51.28350 6.76812 126 ft 5 kts 281°
2026-05-06 19:14 51.28372 6.76728 125 ft 10 kts 309°
2026-05-06 19:14 51.28399 6.76630 126 ft 10 kts 273°
2026-05-06 19:14 51.28372 6.76529 123 ft 9 kts 233°
2026-05-06 19:15 51.28341 6.76468 122 ft 5 kts 232°
2026-05-06 19:15 51.28328 6.76440 124 ft 1 kts 232°
2026-05-06 19:15 51.28304 6.76392 126 ft 12 kts 232°
2026-05-06 19:15 51.28260 6.76302 126 ft 8 kts 232°
2026-05-06 19:16 51.28228 6.76231 128 ft 9 kts 233°
2026-05-06 19:16 51.28169 6.76107 129 ft 17 kts 233°
2026-05-06 19:16 51.28104 6.75969 130 ft 12 kts 233°
2026-05-06 19:16 51.28100 6.75960 128 ft 1 kts 233°
2026-05-06 19:17 51.28080 6.75919 126 ft 9 kts 233°
2026-05-06 19:17 51.28024 6.75800 127 ft 17 kts 232°
2026-05-06 19:17 51.27953 6.75650 128 ft 17 kts 233°
2026-05-06 19:17 51.27882 6.75500 128 ft 14 kts 232°
2026-05-06 19:18 51.27847 6.75394 126 ft 10 kts 269°
2026-05-06 19:18 51.27889 6.75309 124 ft 11 kts 327°
2026-05-06 19:18 51.27963 6.75249 118 ft 13 kts 357°
2026-05-06 19:18 51.28017 6.75321 123 ft 0 kts 54°
2026-05-06 19:19 51.28138 6.75571 125 ft 65 kts 52°
2026-05-06 19:19 51.28542 6.76417 129 ft 125 kts 52°
2026-05-06 19:19 51.29161 6.77717 331 ft 154 kts 50°
2026-05-06 19:20 51.29793 6.79078 1067 ft 153 kts 51°
2026-05-06 19:20 51.30446 6.80483 1673 ft 164 kts 50°
2026-05-06 19:20 51.31168 6.81991 2090 ft 180 kts 50°
2026-05-06 19:20 51.31975 6.83653 2487 ft 199 kts 51°
2026-05-06 19:21 51.32853 6.85474 2926 ft 216 kts 50°
2026-05-06 19:21 51.33817 6.87478 3313 ft 240 kts 50°
2026-05-06 19:21 51.35027 6.89408 4013 ft 251 kts 35°
2026-05-06 19:21 51.36557 6.90732 4903 ft 254 kts 18°
2026-05-06 19:22 51.37703 6.91187 5493 ft 257 kts
2026-05-06 19:22 51.39482 6.91646 6461 ft 257 kts
2026-05-06 19:22 51.41256 6.92124 7348 ft 260 kts
2026-05-06 19:22 51.43045 6.92602 8210 ft 263 kts
2026-05-06 19:23 51.44863 6.93076 9037 ft 267 kts
2026-05-06 19:23 51.46725 6.93544 9856 ft 272 kts
2026-05-06 19:23 51.48631 6.94021 10386 ft 287 kts
2026-05-06 19:23 51.50703 6.94080 10627 ft 310 kts 355°
2026-05-06 19:24 51.52921 6.93517 10913 ft 330 kts 350°
2026-05-06 19:24 51.55193 6.92859 11550 ft 337 kts 350°
2026-05-06 19:24 51.57527 6.92190 12283 ft 341 kts 350°
2026-05-06 19:24 51.59863 6.91529 13013 ft 345 kts 350°
2026-05-06 19:25 51.62254 6.90856 13726 ft 349 kts 350°
2026-05-06 19:25 51.64667 6.90179 14339 ft 354 kts 350°
2026-05-06 19:25 51.67131 6.89984 14918 ft 360 kts
2026-05-06 19:25 51.69593 6.90824 15491 ft 367 kts 19°
2026-05-06 19:26 51.71832 6.92836 16052 ft 375 kts 38°
2026-05-06 19:26 51.73591 6.96012 16611 ft 384 kts 58°
2026-05-06 19:26 51.74569 7.00023 17159 ft 391 kts 79°
2026-05-06 19:26 51.74637 7.04418 17719 ft 396 kts 96°
2026-05-06 19:27 51.74327 7.08787 18290 ft 400 kts 97°
2026-05-06 19:27 51.73992 7.13300 18820 ft 404 kts 97°
2026-05-06 19:27 51.73654 7.17809 19377 ft 407 kts 97°
2026-05-06 19:27 51.73316 7.22340 19921 ft 409 kts 97°
2026-05-06 19:28 51.72980 7.26920 20480 ft 412 kts 97°
2026-05-06 19:28 51.72645 7.31506 21026 ft 414 kts 97°
2026-05-06 19:28 51.72305 7.36151 21561 ft 417 kts 97°
2026-05-06 19:28 51.71960 7.40851 22108 ft 419 kts 97°
2026-05-06 19:29 51.71618 7.45463 22613 ft 422 kts 97°
2026-05-06 19:29 51.71266 7.50171 23088 ft 424 kts 97°
2026-05-06 19:29 51.70912 7.54913 23561 ft 427 kts 97°
2026-05-06 19:29 51.70551 7.59696 23966 ft 429 kts 98°
2026-05-06 19:30 51.70190 7.64400 24334 ft 431 kts 98°
2026-05-06 19:30 51.69814 7.69273 24732 ft 433 kts 98°
2026-05-06 19:30 51.69438 7.74118 25108 ft 435 kts 98°
2026-05-06 19:30 51.69060 7.78966 25481 ft 437 kts 98°
2026-05-06 19:31 51.68680 7.83841 25858 ft 439 kts 98°
2026-05-06 19:31 51.68301 7.88712 26216 ft 441 kts 98°
2026-05-06 19:31 51.67530 7.98585 26900 ft 445 kts 98°
2026-05-06 19:32 51.67139 8.03517 27249 ft 446 kts 98°
2026-05-06 19:32 51.66743 8.08470 27578 ft 448 kts 98°
2026-05-06 19:32 51.66339 8.13488 27891 ft 450 kts 98°
2026-05-06 19:32 51.65938 8.18430 28192 ft 452 kts 99°
2026-05-06 19:33 51.65525 8.23489 28497 ft 454 kts 99°
2026-05-06 19:33 51.65114 8.28510 28737 ft 456 kts 98°
2026-05-06 19:33 51.64697 8.33598 29012 ft 458 kts 98°
2026-05-06 19:33 51.64279 8.38685 29278 ft 460 kts 98°
2026-05-06 19:34 51.63851 8.43821 29528 ft 462 kts 99°
2026-05-06 19:34 51.63421 8.48940 29792 ft 464 kts 99°
2026-05-06 19:34 51.62988 8.54073 30081 ft 463 kts 99°
2026-05-06 19:34 51.62551 8.59231 30369 ft 463 kts 99°
2026-05-06 19:35 51.62116 8.64353 30646 ft 462 kts 99°
2026-05-06 19:35 51.61679 8.69470 30926 ft 462 kts 99°
2026-05-06 19:35 51.61239 8.74619 31166 ft 463 kts 100°
2026-05-06 19:35 51.60804 8.79695 31370 ft 465 kts 100°
2026-05-06 19:36 51.60355 8.84901 31621 ft 465 kts 100°
2026-05-06 19:36 51.59907 8.90049 31823 ft 465 kts 100°
2026-05-06 19:36 51.59010 9.00254 31856 ft 462 kts 101°
2026-05-06 19:37 51.58105 9.10468 31844 ft 461 kts 101°
2026-05-06 19:37 51.57183 9.20648 31841 ft 461 kts 101°
2026-05-06 19:38 51.56263 9.30865 31841 ft 461 kts 101°
2026-05-06 19:38 51.55341 9.41043 31833 ft 460 kts 101°
2026-05-06 19:39 51.54406 9.51189 31827 ft 460 kts 101°
2026-05-06 19:39 51.53452 9.61360 31826 ft 460 kts 101°
2026-05-06 19:40 51.52497 9.71529 31806 ft 460 kts 102°
2026-05-06 19:40 51.51528 9.81707 31807 ft 461 kts 102°
2026-05-06 19:41 51.50556 9.91860 31802 ft 461 kts 102°
2026-05-06 19:41 51.49569 10.02068 31804 ft 462 kts 102°
2026-05-06 19:42 51.48575 10.12222 31801 ft 462 kts 102°
2026-05-06 19:42 51.47571 10.22354 31790 ft 461 kts 103°
2026-05-06 19:43 51.46565 10.32449 31796 ft 461 kts 103°
2026-05-06 19:43 51.45456 10.42631 31795 ft 458 kts 108°
2026-05-06 19:44 51.43833 10.52413 31873 ft 462 kts 109°
2026-05-06 19:44 51.42958 10.57422 32087 ft 463 kts 109°
2026-05-06 19:44 51.42072 10.62418 32300 ft 464 kts 110°
2026-05-06 19:45 51.41194 10.67370 32494 ft 466 kts 110°
2026-05-06 19:45 51.40310 10.72402 32719 ft 467 kts 110°
2026-05-06 19:45 51.39437 10.77400 32966 ft 468 kts 110°
2026-05-06 19:45 51.38567 10.82403 33209 ft 468 kts 110°
2026-05-06 19:46 51.37693 10.87422 33460 ft 468 kts 110°
2026-05-06 19:46 51.36814 10.92435 33736 ft 468 kts 110°
2026-05-06 19:46 51.35940 10.97408 33973 ft 468 kts 110°
2026-05-06 19:46 51.35043 11.02496 34195 ft 468 kts 110°
2026-05-06 19:47 51.34160 11.07489 34396 ft 469 kts 110°
2026-05-06 19:47 51.33265 11.12526 34533 ft 471 kts 110°
2026-05-06 19:47 51.32364 11.17577 34733 ft 471 kts 110°
2026-05-06 19:47 51.31466 11.22599 34957 ft 471 kts 110°
2026-05-06 19:48 51.30567 11.27621 35181 ft 470 kts 110°
2026-05-06 19:48 51.29687 11.32519 35394 ft 469 kts 110°
2026-05-06 19:48 51.28764 11.37642 35605 ft 469 kts 110°
2026-05-06 19:48 51.27860 11.42639 35759 ft 469 kts 111°
2026-05-06 19:49 51.26053 11.52595 35779 ft 468 kts 111°
2026-05-06 19:49 51.24249 11.62470 35790 ft 469 kts 111°
2026-05-06 19:50 51.22409 11.72512 35788 ft 469 kts 111°
2026-05-06 19:50 51.20562 11.82569 35786 ft 468 kts 111°
2026-05-06 19:51 51.18727 11.92460 35790 ft 467 kts 111°
2026-05-06 19:51 51.16870 12.02395 35665 ft 469 kts 112°
2026-05-06 19:52 51.15938 12.07383 35407 ft 469 kts 112°
2026-05-06 19:52 51.15010 12.12347 35144 ft 469 kts 112°
2026-05-06 19:52 51.14073 12.17338 34640 ft 470 kts 112°
2026-05-06 19:52 51.13134 12.22321 34156 ft 470 kts 112°
2026-05-06 19:53 51.12180 12.27340 33647 ft 480 kts 112°
2026-05-06 19:53 51.11199 12.32478 33067 ft 486 kts 112°
2026-05-06 19:53 51.10224 12.37592 32506 ft 488 kts 111°
2026-05-06 19:53 51.09234 12.42790 31926 ft 489 kts 111°
2026-05-06 19:54 51.08246 12.47982 31375 ft 490 kts 111°
2026-05-06 19:54 51.07254 12.53182 30842 ft 490 kts 111°
2026-05-06 19:54 51.06263 12.58353 30322 ft 490 kts 111°
2026-05-06 19:54 51.05270 12.63527 29771 ft 482 kts 111°
2026-05-06 19:55 51.04298 12.68576 29184 ft 477 kts 111°
2026-05-06 19:55 51.03327 12.73575 28581 ft 469 kts 111°
2026-05-06 19:55 51.02368 12.78488 28012 ft 463 kts 111°
2026-05-06 19:55 51.01423 12.83328 27436 ft 459 kts 111°
2026-05-06 19:56 51.00458 12.88244 26887 ft 469 kts 111°
2026-05-06 19:56 50.99495 12.93141 26394 ft 470 kts 111°
2026-05-06 19:56 50.98522 12.98092 25902 ft 468 kts 111°
2026-05-06 19:56 50.97560 13.02996 25435 ft 464 kts 111°
2026-05-06 19:57 50.96602 13.07873 24961 ft 461 kts 111°
2026-05-06 19:57 50.95650 13.12705 24502 ft 457 kts 111°
2026-05-06 19:57 50.94702 13.17499 24047 ft 454 kts 111°
2026-05-06 19:57 50.93757 13.22254 23609 ft 451 kts 111°
2026-05-06 19:58 50.92814 13.26974 23129 ft 448 kts 111°
2026-05-06 19:58 50.91877 13.31652 22582 ft 445 kts 111°
2026-05-06 19:58 50.90948 13.36274 22076 ft 442 kts 111°
2026-05-06 19:58 50.90003 13.40988 21566 ft 439 kts 111°
2026-05-06 19:59 50.89100 13.45495 21083 ft 436 kts 111°
2026-05-06 19:59 50.88179 13.50065 20599 ft 433 kts 111°
2026-05-06 19:59 50.87265 13.54588 20149 ft 426 kts 111°
2026-05-06 19:59 50.86377 13.58976 19856 ft 415 kts 111°
2026-05-06 20:00 50.85507 13.63267 19561 ft 407 kts 111°
2026-05-06 20:00 50.84640 13.67526 19267 ft 403 kts 111°
2026-05-06 20:00 50.83780 13.71742 18972 ft 401 kts 111°
2026-05-06 20:00 50.82923 13.75923 18689 ft 400 kts 111°
2026-05-06 20:01 50.82074 13.80064 18413 ft 398 kts 111°
2026-05-06 20:01 50.81212 13.84256 18114 ft 397 kts 111°
2026-05-06 20:01 50.80278 13.88340 17798 ft 392 kts 118°
2026-05-06 20:01 50.79027 13.92045 17480 ft 389 kts 122°
2026-05-06 20:02 50.77695 13.95815 17158 ft 387 kts 122°
2026-05-06 20:02 50.76377 13.99556 16832 ft 386 kts 122°
2026-05-06 20:02 50.75068 14.03269 16520 ft 384 kts 122°
2026-05-06 20:02 50.73773 14.06939 16220 ft 383 kts 122°
2026-05-06 20:03 50.72495 14.10554 15903 ft 381 kts 122°
2026-05-06 20:03 50.71194 14.14226 15452 ft 377 kts 122°
2026-05-06 20:03 50.69935 14.17770 14961 ft 374 kts 122°
2026-05-06 20:03 50.68667 14.21344 14457 ft 372 kts 122°
2026-05-06 20:04 50.67391 14.24934 13956 ft 370 kts 122°
2026-05-06 20:04 50.66149 14.28419 13466 ft 367 kts 122°
2026-05-06 20:04 50.64901 14.31915 12931 ft 365 kts 123°
2026-05-06 20:04 50.63673 14.35350 12678 ft 355 kts 123°
2026-05-06 20:05 50.62896 14.37524 12602 ft 346 kts 123°
2026-05-06 20:05 50.61713 14.40839 12452 ft 334 kts 123°
2026-05-06 20:05 50.60600 14.43939 12324 ft 322 kts 125°
2026-05-06 20:05 50.58644 14.47211 12134 ft 298 kts 151°
2026-05-06 20:06 50.57420 14.48185 11959 ft 290 kts 164°
2026-05-06 20:06 50.55436 14.48778 11249 ft 294 kts 185°
2026-05-06 20:06 50.53461 14.48401 11094 ft 281 kts 195°
2026-05-06 20:06 50.51550 14.47779 10783 ft 277 kts 193°
2026-05-06 20:07 50.49668 14.47180 10441 ft 275 kts 195°
2026-05-06 20:07 50.47809 14.46512 10093 ft 274 kts 195°
2026-05-06 20:07 50.45954 14.45835 9801 ft 272 kts 195°
2026-05-06 20:07 50.44226 14.44690 9759 ft 266 kts 218°
2026-05-06 20:08 50.43028 14.42649 9673 ft 254 kts 233°
2026-05-06 20:08 50.42022 14.40389 9530 ft 245 kts 235°
2026-05-06 20:08 50.41091 14.38223 9240 ft 241 kts 235°
2026-05-06 20:08 50.40151 14.36027 8890 ft 240 kts 235°
2026-05-06 20:09 50.39232 14.33884 8758 ft 239 kts 235°
2026-05-06 20:09 50.38302 14.31715 8776 ft 241 kts 235°
2026-05-06 20:09 50.37369 14.29540 8781 ft 240 kts 235°
2026-05-06 20:09 50.36450 14.27394 8623 ft 235 kts 235°
2026-05-06 20:10 50.35543 14.25274 8277 ft 233 kts 235°
2026-05-06 20:10 50.34641 14.23166 7915 ft 233 kts 235°
2026-05-06 20:10 50.33737 14.21059 7536 ft 232 kts 235°
2026-05-06 20:10 50.32849 14.18999 7191 ft 231 kts 235°
2026-05-06 20:11 50.31939 14.16890 6824 ft 231 kts 235°
2026-05-06 20:11 50.31040 14.14811 6468 ft 230 kts 235°
2026-05-06 20:11 50.30141 14.12735 6119 ft 230 kts 235°
2026-05-06 20:11 50.29255 14.10695 5746 ft 230 kts 235°
2026-05-06 20:12 50.28370 14.08668 5596 ft 220 kts 235°
2026-05-06 20:12 50.27525 14.06746 5443 ft 212 kts 235°
2026-05-06 20:12 50.26693 14.04857 5193 ft 209 kts 235°
2026-05-06 20:12 50.25862 14.02992 4936 ft 209 kts 235°
2026-05-06 20:13 50.24864 14.01362 4689 ft 210 kts 211°
2026-05-06 20:13 50.23465 14.00755 4476 ft 212 kts 178°
2026-05-06 20:13 50.22065 14.01443 4486 ft 219 kts 145°
2026-05-06 20:13 50.21022 14.03190 4443 ft 222 kts 127°
2026-05-06 20:14 50.20123 14.05106 4206 ft 222 kts 126°
2026-05-06 20:14 50.19141 14.07183 3905 ft 239 kts 126°
2026-05-06 20:14 50.18154 14.09247 3585 ft 236 kts 126°
2026-05-06 20:14 50.17185 14.11264 3278 ft 226 kts 126°
2026-05-06 20:15 50.16293 14.13120 2999 ft 216 kts 124°
2026-05-06 20:15 50.15402 14.14975 2727 ft 199 kts 125°
2026-05-06 20:15 50.14599 14.16642 2485 ft 185 kts 124°
2026-05-06 20:15 50.13859 14.18180 2223 ft 170 kts 123°
2026-05-06 20:16 50.13193 14.19563 2055 ft 151 kts 124°
2026-05-06 20:16 50.12579 14.20805 1793 ft 141 kts 125°
2026-05-06 20:16 50.12006 14.22011 1576 ft 137 kts 126°
2026-05-06 20:16 50.11446 14.23181 1421 ft 132 kts 126°
2026-05-06 20:17 50.10905 14.24318 1227 ft 130 kts 126°
2026-05-06 20:17 50.10413 14.25348 1173 ft 102 kts 127°
2026-05-06 20:17 50.10109 14.25970 1187 ft 40 kts 127°
2026-05-06 20:17 50.09967 14.26260 1193 ft 24 kts 128°
2026-05-06 20:18 50.09893 14.26417 1198 ft 14 kts 124°
2026-05-06 20:18 50.09868 14.26539 1204 ft 10 kts 89°
2026-05-06 20:18 50.09875 14.26635 1207 ft 8 kts 80°
2026-05-06 20:18 50.09885 14.26721 1208 ft 8 kts 81°
2026-05-06 20:19 50.09894 14.26806 1209 ft 8 kts 81°
2026-05-06 20:19 50.09901 14.26880 1210 ft 6 kts 82°
2026-05-06 20:19 50.09906 14.26941 1212 ft 6 kts 82°
2026-05-06 20:19 50.09916 14.27088 1212 ft 18 kts 92°
2026-05-06 20:20 50.09970 14.27074 1209 ft 12 kts 306°
2026-05-06 20:20 50.10018 14.26974 1209 ft 11 kts 308°
2026-05-06 20:20 50.10062 14.26887 1209 ft 10 kts 308°
2026-05-06 20:20 50.10107 14.26797 1206 ft 11 kts 308°
2026-05-06 20:21 50.10155 14.26695 1204 ft 12 kts 306°
2026-05-06 20:21 50.10209 14.26581 1200 ft 17 kts 306°
2026-05-06 20:21 50.10299 14.26394 1195 ft 23 kts 307°
2026-05-06 20:21 50.10400 14.26186 1192 ft 26 kts 307°
2026-05-06 20:22 50.10481 14.26019 1190 ft 11 kts 308°
2026-05-06 20:22 50.10531 14.26030 1189 ft 9 kts 76°
2026-05-06 20:22 50.10539 14.26131 1188 ft 11 kts 82°
2026-05-06 20:22 50.10530 14.26245 1187 ft 8 kts 110°
2026-05-06 20:23 50.10548 14.26307 1186 ft 8 kts 31°
2026-05-06 20:23 50.10562 14.26322 1186 ft 1 kts 32°
2026-05-06 20:23 50.10568 14.26327 1186 ft 0 kts 32°